Regional Weather Roundup
Issued by NWS

Home | Current Version | Previous Version | Text Only | Print | Product List | Glossary Off
Versions: 1 2 3 4 5 6 7 8 9 10 11 12 13 14 15 16 17 18 19 20 21 22 23 24 25 26 27 28 29 30 31 32 33 34 35 36 37 38 39 40 41 42 43 44 45 46 47 48 49 50

000
ASUS45 KSLC 011610
RWRUT

UTAH REGIONAL WEATHER ROUNDUP
NATIONAL WEATHER SERVICE SALT LAKE CITY UT
900 AM MST SUN FEB 01 2015

UTZ001>011-023>025-011700-

NORTHERN UTAH

CITY           SKY/WX    TMP DP  RH WIND       PRES   REMARKS
BRIGHAM CITY   SUNNY     27  24  88 CALM      30.24R
HILL AFB       SUNNY     31  22  67 E9        30.21S WCI  23
LOGAN          SUNNY     26  23  88 CALM      30.24R
OGDEN          SUNNY     31  24  75 S9        30.21S WCI  23
PROVO AIRPORT  SUNNY     34  25  69 CALM      30.25R
SALT LAKE CITY MOSUNNY   32  28  85 SE7       30.23R WCI  26
VERNAL         SUNNY     29  23  78 SE3       30.16R
WENDOVER       MOSUNNY   28  21  74 CALM      30.23R
HEBER CITY     SUNNY     23  21  93 CALM      30.23R
WEST JORDAN    SUNNY     34  30  86 SE3       30.23R

$$

UTZ012>022-026-027-011700-

SOUTHERN/CENTRAL UTAH

CITY           SKY/WX    TMP DP  RH WIND       PRES   REMARKS
BLANDING       SUNNY     32  32  99 CALM      30.23R
BRYCE CANYON   SUNNY     24  20  84 W9        30.22R WCI  14
CEDAR CITY     MOSUNNY   29  26  89 CALM      30.21F
DELTA          SUNNY     28  28 100 CALM      30.24R
HANKSVILLE     SUNNY     32  32 100 CALM      30.20R
MILFORD        SUNNY     26  23  88 S5        30.23S WCI  20
MOAB/CYNLANDS  FOG       35  35 100 SW3       30.16R VSB 1/2
PRICE          SUNNY     39  14  36 N8        30.14R WCI  33
ST GEORGE      SUNNY     41  30  65 CALM      30.23R
KANAB          SUNNY     32  28  86 CALM      30.24S

$$

REGIONAL REPORTS     COLORADO/ARIZONA

CITY           SKY/WX    TMP DP  RH WIND       PRES   REMARKS
CRAIG, CO      CLOUDY    18  15  88 CALM      30.16R
GRAND JUNCTION MOSUNNY   31  29  92 CALM      30.18R
RIFLE          CLOUDY    24  22  91 CALM      30.19R
MONTROSE       SUNNY     30  25  81 S6        30.19R WCI  24
CORTEZ         SUNNY     33  26  75 CALM      30.13R
PAGE, AZ       NOT AVBL
GRAND CANYON   SUNNY     29  27  92 E3        30.20R
KINGMAN        SUNNY     45  37  73 E8        30.18R
FLAGSTAFF      SUNNY     37  24  59 E9        30.18R WCI  30

$$

REGIONAL REPORTS    NEVADA/IDAHO/WYOMING

CITY           SKY/WX    TMP DP  RH WIND       PRES   REMARKS
LAS VEGAS, NV  MOSUNNY   48  37  65 SW7       30.15R
ELY            SUNNY     25  19  78 S12       30.24R WCI  14
ELKO           PTSUNNY   26  21  81 CALM      30.24R
POCATELLO, ID  CLOUDY    29  29 100 E5        30.24R WCI  24
BURLEY         PTSUNNY   29  26  89 NE7       30.21R FOG     WCI  22
EVANSTON, WY   MOSUNNY   25  18  74 SW13      30.17R WCI  14
ROCK SPRINGS   MOSUNNY   24  13  62 W12       30.14R WCI  13

$$


USA.gov is the U.S. government's official web portal to all federal, state and local government web resources and services.